Year,Month,Day,Hour,Minute,Value (Times are PST for temperature in C)
2009,09,19,00,00,17.80
2009,09,19,00,01,17.70
2009,09,19,00,02,17.60
2009,09,19,00,03,17.50
2009,09,19,00,04,17.50
2009,09,19,00,05,17.40
2009,09,19,00,06,17.30
2009,09,19,00,07,17.30
2009,09,19,00,08,17.20
2009,09,19,00,09,17.20
2009,09,19,00,10,17.10
2009,09,19,00,11,17.10
2009,09,19,00,12,17.00
2009,09,19,00,13,16.90
2009,09,19,00,14,16.90
2009,09,19,00,15,16.90
2009,09,19,00,16,16.80
2009,09,19,00,17,16.80
2009,09,19,00,18,16.80
2009,09,19,00,19,16.70
2009,09,19,00,20,16.70
2009,09,19,00,21,16.70
2009,09,19,00,22,16.70
2009,09,19,00,23,16.70
2009,09,19,00,24,16.70
2009,09,19,00,25,16.60
2009,09,19,00,26,16.60
2009,09,19,00,27,16.60
2009,09,19,00,28,16.60
2009,09,19,00,29,16.60
2009,09,19,00,30,16.60
2009,09,19,00,31,16.60
2009,09,19,00,32,16.60
2009,09,19,00,33,16.50
2009,09,19,00,34,16.50
2009,09,19,00,35,16.50
2009,09,19,00,36,16.50
2009,09,19,00,37,16.50
2009,09,19,00,38,16.50
2009,09,19,00,39,16.40
2009,09,19,00,40,16.40
2009,09,19,00,41,16.40
2009,09,19,00,42,16.40
2009,09,19,00,43,16.40
2009,09,19,00,44,16.40
2009,09,19,00,45,16.40
2009,09,19,00,46,16.40
2009,09,19,00,47,16.40
2009,09,19,00,48,16.40
2009,09,19,00,49,16.40
2009,09,19,00,50,16.40
2009,09,19,00,51,16.40
2009,09,19,00,52,16.40
2009,09,19,00,53,16.40
2009,09,19,00,54,16.40
2009,09,19,00,55,16.40
2009,09,19,00,56,16.40
2009,09,19,00,57,16.40
2009,09,19,00,58,16.40
2009,09,19,00,59,16.30
2009,09,19,01,00,16.30
2009,09,19,01,01,16.30
2009,09,19,01,02,16.30
2009,09,19,01,03,16.30
2009,09,19,01,04,16.30
2009,09,19,01,05,16.30
2009,09,19,01,06,16.30
2009,09,19,01,07,16.30
2009,09,19,01,08,16.30
2009,09,19,01,09,16.30
2009,09,19,01,10,16.20
2009,09,19,01,11,16.20
2009,09,19,01,12,16.20
2009,09,19,01,13,16.20
2009,09,19,01,14,16.20
2009,09,19,01,15,16.20
2009,09,19,01,16,16.20
2009,09,19,01,17,16.20
2009,09,19,01,18,16.20
2009,09,19,01,19,16.20
2009,09,19,01,20,16.10
2009,09,19,01,21,16.10
2009,09,19,01,22,16.10
2009,09,19,01,23,16.10
2009,09,19,01,24,16.10
2009,09,19,01,25,16.10
2009,09,19,01,26,16.10
2009,09,19,01,27,16.00
2009,09,19,01,28,16.00
2009,09,19,01,29,16.00
2009,09,19,01,30,16.00
2009,09,19,01,31,16.00
2009,09,19,01,32,15.90
2009,09,19,01,33,15.90
2009,09,19,01,34,15.90
2009,09,19,01,35,15.90
2009,09,19,01,36,15.90
2009,09,19,01,37,15.90
2009,09,19,01,38,15.90
2009,09,19,01,39,15.90
2009,09,19,01,40,15.90
2009,09,19,01,41,15.90
2009,09,19,01,42,15.90
2009,09,19,01,43,15.90
2009,09,19,01,44,15.80
2009,09,19,01,45,15.80
2009,09,19,01,46,15.80
2009,09,19,01,47,15.80
2009,09,19,01,48,15.80
2009,09,19,01,49,15.80
2009,09,19,01,50,15.80
2009,09,19,01,51,15.80
2009,09,19,01,52,15.80
2009,09,19,01,53,15.80
2009,09,19,01,54,15.80
2009,09,19,01,55,15.80
2009,09,19,01,56,15.80
2009,09,19,01,57,15.70
2009,09,19,01,58,15.70
2009,09,19,01,59,15.70
2009,09,19,02,00,15.70
2009,09,19,02,01,15.70
2009,09,19,02,02,15.70
2009,09,19,02,03,15.70
2009,09,19,02,04,15.70
2009,09,19,02,05,15.70
2009,09,19,02,06,15.70
2009,09,19,02,07,15.70
2009,09,19,02,08,15.70
2009,09,19,02,09,15.70
2009,09,19,02,10,15.70
2009,09,19,02,11,15.70
2009,09,19,02,12,15.70
2009,09,19,02,13,15.70
2009,09,19,02,14,15.70
2009,09,19,02,15,15.70
2009,09,19,02,16,15.70
2009,09,19,02,17,15.70
2009,09,19,02,18,15.70
2009,09,19,02,19,15.70
2009,09,19,02,20,15.70
2009,09,19,02,21,15.70
2009,09,19,02,22,15.70
2009,09,19,02,23,15.70
2009,09,19,02,24,15.70
2009,09,19,02,25,15.70
2009,09,19,02,26,15.70
2009,09,19,02,27,15.70
2009,09,19,02,28,15.70
2009,09,19,02,29,15.70
2009,09,19,02,30,15.70
2009,09,19,02,31,15.70
2009,09,19,02,32,15.70
2009,09,19,02,33,15.70
2009,09,19,02,34,15.70
2009,09,19,02,35,15.70
2009,09,19,02,36,15.70
2009,09,19,02,37,15.70
2009,09,19,02,38,15.70
2009,09,19,02,39,15.60
2009,09,19,02,40,15.60
2009,09,19,02,41,15.60
2009,09,19,02,42,15.60
2009,09,19,02,43,15.60
2009,09,19,02,44,15.60
2009,09,19,02,45,15.60
2009,09,19,02,46,15.60
2009,09,19,02,47,15.60
2009,09,19,02,48,15.60
2009,09,19,02,49,15.60
2009,09,19,02,50,15.60
2009,09,19,02,51,15.60
2009,09,19,02,52,15.60
2009,09,19,02,53,15.60
2009,09,19,02,54,15.60
2009,09,19,02,55,15.50
2009,09,19,02,56,15.50
2009,09,19,02,57,15.50
2009,09,19,02,58,15.50
2009,09,19,02,59,15.50
2009,09,19,03,00,15.50
2009,09,19,03,01,15.50
2009,09,19,03,02,15.50
2009,09,19,03,03,15.50
2009,09,19,03,04,15.50
2009,09,19,03,05,15.50
2009,09,19,03,06,15.50
2009,09,19,03,07,15.50
2009,09,19,03,08,15.50
2009,09,19,03,09,15.50
2009,09,19,03,10,15.50
2009,09,19,03,11,15.50
2009,09,19,03,12,15.50
2009,09,19,03,13,15.50
2009,09,19,03,14,15.50
2009,09,19,03,15,15.50
2009,09,19,03,16,15.50
2009,09,19,03,17,15.50
2009,09,19,03,18,15.50
2009,09,19,03,19,15.50
2009,09,19,03,20,15.50
2009,09,19,03,21,15.50
2009,09,19,03,22,15.50
2009,09,19,03,23,15.50
2009,09,19,03,24,15.50
2009,09,19,03,25,15.50
2009,09,19,03,26,15.60
2009,09,19,03,27,15.60
2009,09,19,03,28,15.60
2009,09,19,03,29,15.60
2009,09,19,03,30,15.60
2009,09,19,03,31,15.60
2009,09,19,03,32,15.60
2009,09,19,03,33,15.60
2009,09,19,03,34,15.60
2009,09,19,03,35,15.60
2009,09,19,03,36,15.60
2009,09,19,03,37,15.50
2009,09,19,03,38,15.50
2009,09,19,03,39,15.50
2009,09,19,03,40,15.50
2009,09,19,03,41,15.50
2009,09,19,03,42,15.50
2009,09,19,03,43,15.50
2009,09,19,03,44,15.50
2009,09,19,03,45,15.50
2009,09,19,03,46,15.40
2009,09,19,03,47,15.40
2009,09,19,03,48,15.40
2009,09,19,03,49,15.40
2009,09,19,03,50,15.40
2009,09,19,03,51,15.40
2009,09,19,03,52,15.40
2009,09,19,03,53,15.40
2009,09,19,03,54,15.40
2009,09,19,03,55,15.40
2009,09,19,03,56,15.40
2009,09,19,03,57,15.40
2009,09,19,03,58,15.40
2009,09,19,03,59,15.40
2009,09,19,04,00,15.40
2009,09,19,04,01,15.40
2009,09,19,04,02,15.40
2009,09,19,04,03,15.40
2009,09,19,04,04,15.30
2009,09,19,04,05,15.30
2009,09,19,04,06,15.30
2009,09,19,04,07,15.30
2009,09,19,04,08,15.30
2009,09,19,04,09,15.30
2009,09,19,04,10,15.30
2009,09,19,04,11,15.30
2009,09,19,04,12,15.30
2009,09,19,04,13,15.30
2009,09,19,04,14,15.30
2009,09,19,04,15,15.30
2009,09,19,04,16,15.30
2009,09,19,04,17,15.30
2009,09,19,04,18,15.30
2009,09,19,04,19,15.30
2009,09,19,04,20,15.30
2009,09,19,04,21,15.30
2009,09,19,04,22,15.30
2009,09,19,04,23,15.20
2009,09,19,04,24,15.20
2009,09,19,04,25,15.20
2009,09,19,04,26,15.20
2009,09,19,04,27,15.20
2009,09,19,04,28,15.20
2009,09,19,04,29,15.20
2009,09,19,04,30,15.20
2009,09,19,04,31,15.20
2009,09,19,04,32,15.20
2009,09,19,04,33,15.20
2009,09,19,04,34,15.20
2009,09,19,04,35,15.20
2009,09,19,04,36,15.20
2009,09,19,04,37,15.20
2009,09,19,04,38,15.20
2009,09,19,04,39,15.20
2009,09,19,04,40,15.20
2009,09,19,04,41,15.30
2009,09,19,04,42,15.30
2009,09,19,04,43,15.30
2009,09,19,04,44,15.30
2009,09,19,04,45,15.30
2009,09,19,04,46,15.30
2009,09,19,04,47,15.30
2009,09,19,04,48,15.30
2009,09,19,04,49,15.30
2009,09,19,04,50,15.30
2009,09,19,04,51,15.30
2009,09,19,04,52,15.30
2009,09,19,04,53,15.30
2009,09,19,04,54,15.30
2009,09,19,04,55,15.30
2009,09,19,04,56,15.30
2009,09,19,04,57,15.30
2009,09,19,04,58,15.30
2009,09,19,04,59,15.30
2009,09,19,05,00,15.30
2009,09,19,05,01,15.30
2009,09,19,05,02,15.30
2009,09,19,05,03,15.30
2009,09,19,05,04,15.30
2009,09,19,05,05,15.30
2009,09,19,05,06,15.30
2009,09,19,05,07,15.30
2009,09,19,05,08,15.30
2009,09,19,05,09,15.30
2009,09,19,05,10,15.30
2009,09,19,05,11,15.40
2009,09,19,05,12,15.40
2009,09,19,05,13,15.40
2009,09,19,05,14,15.30
2009,09,19,05,15,15.30
2009,09,19,05,16,15.30
2009,09,19,05,17,15.40
2009,09,19,05,18,15.40
2009,09,19,05,19,15.40
2009,09,19,05,20,15.40
2009,09,19,05,21,15.40
2009,09,19,05,22,15.40
2009,09,19,05,23,15.40
2009,09,19,05,24,15.40
2009,09,19,05,25,15.40
2009,09,19,05,26,15.30
2009,09,19,05,27,15.30
2009,09,19,05,28,15.30
2009,09,19,05,29,15.30
2009,09,19,05,30,15.30
2009,09,19,05,31,15.30
2009,09,19,05,32,15.30
2009,09,19,05,33,15.30
2009,09,19,05,34,15.30
2009,09,19,05,35,15.30
2009,09,19,05,36,15.30
2009,09,19,05,37,15.30
2009,09,19,05,38,15.30
2009,09,19,05,39,15.30
2009,09,19,05,40,15.30
2009,09,19,05,41,15.20
2009,09,19,05,42,15.20
2009,09,19,05,43,15.20
2009,09,19,05,44,15.20
2009,09,19,05,45,15.10
2009,09,19,05,46,15.10
2009,09,19,05,47,15.00
2009,09,19,05,48,15.00
2009,09,19,05,49,15.00
2009,09,19,05,50,15.00
2009,09,19,05,51,15.00
2009,09,19,05,52,15.00
2009,09,19,05,53,15.00
2009,09,19,05,54,15.00
2009,09,19,05,55,15.00
2009,09,19,05,56,15.00
2009,09,19,05,57,15.00
2009,09,19,05,58,14.90
2009,09,19,05,59,14.80
2009,09,19,06,00,14.80
2009,09,19,06,01,14.80
2009,09,19,06,02,14.70
2009,09,19,06,03,14.70
2009,09,19,06,04,14.70
2009,09,19,06,05,14.60
2009,09,19,06,06,14.60
2009,09,19,06,07,14.60
2009,09,19,06,08,14.60
2009,09,19,06,09,14.50
2009,09,19,06,10,14.50
2009,09,19,06,11,14.40
2009,09,19,06,12,14.40
2009,09,19,06,13,14.40
2009,09,19,06,14,14.40
2009,09,19,06,15,14.30
2009,09,19,06,16,14.30
2009,09,19,06,17,14.30
2009,09,19,06,18,14.30
2009,09,19,06,19,14.30
2009,09,19,06,20,14.30
2009,09,19,06,21,14.20
2009,09,19,06,22,14.20
2009,09,19,06,23,14.20
2009,09,19,06,24,14.20
2009,09,19,06,25,14.20
2009,09,19,06,26,14.10
2009,09,19,06,27,14.10
2009,09,19,06,28,14.10
2009,09,19,06,29,14.10
2009,09,19,06,30,14.10
2009,09,19,06,31,14.10
2009,09,19,06,32,14.10
2009,09,19,06,33,14.10
2009,09,19,06,34,14.10
2009,09,19,06,35,14.00
2009,09,19,06,36,14.10
2009,09,19,06,37,14.10
2009,09,19,06,38,14.10
2009,09,19,06,39,14.00
2009,09,19,06,40,14.00
2009,09,19,06,41,14.00
2009,09,19,06,42,14.00
2009,09,19,06,43,14.00
2009,09,19,06,44,13.90
2009,09,19,06,45,13.90
2009,09,19,06,46,13.90
2009,09,19,06,47,13.90
2009,09,19,06,48,13.90
2009,09,19,06,49,13.90
2009,09,19,06,50,13.90
2009,09,19,06,51,13.90
2009,09,19,06,52,13.80
2009,09,19,06,53,13.80
2009,09,19,06,54,13.80
2009,09,19,06,55,13.80
2009,09,19,06,56,13.80
2009,09,19,06,57,13.80
2009,09,19,06,58,13.80
2009,09,19,06,59,13.80
2009,09,19,07,00,13.80
2009,09,19,07,01,13.70
2009,09,19,07,02,13.70
2009,09,19,07,03,13.70
2009,09,19,07,04,13.70
2009,09,19,07,05,13.70
2009,09,19,07,06,13.70
2009,09,19,07,07,13.70
2009,09,19,07,08,13.60
2009,09,19,07,09,13.60
2009,09,19,07,10,13.60
2009,09,19,07,11,13.60
2009,09,19,07,12,13.60
2009,09,19,07,13,13.50
2009,09,19,07,14,13.50
2009,09,19,07,15,13.50
2009,09,19,07,16,13.40
2009,09,19,07,17,13.40
2009,09,19,07,18,13.40
2009,09,19,07,19,13.40
2009,09,19,07,20,13.40
2009,09,19,07,21,13.40
2009,09,19,07,22,13.40
2009,09,19,07,23,13.40
2009,09,19,07,24,13.40
2009,09,19,07,25,13.40
2009,09,19,07,26,13.40
2009,09,19,07,27,13.40
2009,09,19,07,28,13.40
2009,09,19,07,29,13.40
2009,09,19,07,30,13.30
2009,09,19,07,31,13.30
2009,09,19,07,32,13.30
2009,09,19,07,33,13.30
2009,09,19,07,34,13.30
2009,09,19,07,35,13.30
2009,09,19,07,36,13.30
2009,09,19,07,37,13.30
2009,09,19,07,38,13.30
2009,09,19,07,39,13.30
2009,09,19,07,40,13.30
2009,09,19,07,41,13.30
2009,09,19,07,42,13.30
2009,09,19,07,43,13.30
2009,09,19,07,44,13.30
2009,09,19,07,45,13.30
2009,09,19,07,46,13.30
2009,09,19,07,47,13.30
2009,09,19,07,48,13.40
2009,09,19,07,49,13.40
2009,09,19,07,50,13.40
2009,09,19,07,51,13.40
2009,09,19,07,52,13.40
2009,09,19,07,53,13.40
2009,09,19,07,54,13.40
2009,09,19,07,55,13.40
2009,09,19,07,56,13.40
2009,09,19,07,57,13.40
2009,09,19,07,58,13.40
2009,09,19,07,59,13.30
2009,09,19,08,00,13.30
2009,09,19,08,01,13.40
2009,09,19,08,02,13.40
2009,09,19,08,03,13.40
2009,09,19,08,04,13.40
2009,09,19,08,05,13.40
2009,09,19,08,06,13.40
2009,09,19,08,07,13.30
2009,09,19,08,08,13.30
2009,09,19,08,09,13.30
2009,09,19,08,10,13.30
2009,09,19,08,11,13.30
2009,09,19,08,12,13.30
2009,09,19,08,13,13.30
2009,09,19,08,14,13.30
2009,09,19,08,15,13.30
2009,09,19,08,16,13.30
2009,09,19,08,17,13.30
2009,09,19,08,18,13.30
2009,09,19,08,19,13.30
2009,09,19,08,20,13.30
2009,09,19,08,21,13.30
2009,09,19,08,22,13.30
2009,09,19,08,23,13.30
2009,09,19,08,24,13.30
2009,09,19,08,25,13.30
2009,09,19,08,26,13.30
2009,09,19,08,27,13.20
2009,09,19,08,28,13.20
2009,09,19,08,29,13.20
2009,09,19,08,30,13.20
2009,09,19,08,31,13.20
2009,09,19,08,32,13.20
2009,09,19,08,33,13.10
2009,09,19,08,34,13.10
2009,09,19,08,35,13.10
2009,09,19,08,36,13.10
2009,09,19,08,37,13.10
2009,09,19,08,38,13.10
2009,09,19,08,39,13.10
2009,09,19,08,40,13.10
2009,09,19,08,41,13.00
2009,09,19,08,42,13.00
2009,09,19,08,43,13.00
2009,09,19,08,44,13.00
2009,09,19,08,45,12.90
2009,09,19,08,46,12.90
2009,09,19,08,47,12.90
2009,09,19,08,48,12.90
2009,09,19,08,49,12.90
2009,09,19,08,50,12.90
2009,09,19,08,51,12.90
2009,09,19,08,52,12.90
2009,09,19,08,53,12.90
2009,09,19,08,54,12.90
2009,09,19,08,55,12.90
2009,09,19,08,56,13.00
2009,09,19,08,57,13.00
2009,09,19,08,58,13.10
2009,09,19,08,59,13.20
2009,09,19,09,00,13.20
2009,09,19,09,01,13.30
2009,09,19,09,02,13.30
2009,09,19,09,03,13.30
2009,09,19,09,04,13.30
2009,09,19,09,05,13.40
2009,09,19,09,06,13.40
2009,09,19,09,07,13.40
2009,09,19,09,08,13.40
2009,09,19,09,09,13.40
2009,09,19,09,10,13.40
2009,09,19,09,11,13.40
2009,09,19,09,12,13.40
2009,09,19,09,13,13.40
2009,09,19,09,14,13.40
2009,09,19,09,15,13.40
2009,09,19,09,16,13.40
2009,09,19,09,17,13.40
2009,09,19,09,18,13.30
2009,09,19,09,19,13.30
2009,09,19,09,20,13.30
2009,09,19,09,21,13.30
2009,09,19,09,22,13.30
2009,09,19,09,23,13.30
2009,09,19,09,24,13.20
2009,09,19,09,25,13.20
2009,09,19,09,26,13.20
2009,09,19,09,27,13.20
2009,09,19,09,28,13.20
2009,09,19,09,29,13.20
2009,09,19,09,30,13.20
2009,09,19,09,31,13.20
2009,09,19,09,32,13.20
2009,09,19,09,33,13.20
2009,09,19,09,34,13.20
2009,09,19,09,35,13.20
2009,09,19,09,36,13.20
2009,09,19,09,37,13.20
2009,09,19,09,38,13.30
2009,09,19,09,39,13.30
2009,09,19,09,40,13.30
2009,09,19,09,41,13.30
2009,09,19,09,42,13.30
2009,09,19,09,43,13.30
2009,09,19,09,44,13.40
2009,09,19,09,45,13.40
2009,09,19,09,46,13.40
2009,09,19,09,47,13.40
2009,09,19,09,48,13.40
2009,09,19,09,49,13.40
2009,09,19,09,50,13.40
2009,09,19,09,51,13.40
2009,09,19,09,52,13.40
2009,09,19,09,53,13.40
2009,09,19,09,54,13.40
2009,09,19,09,55,13.40
2009,09,19,09,56,13.30
2009,09,19,09,57,13.30
2009,09,19,09,58,13.30
2009,09,19,09,59,13.30
2009,09,19,10,00,13.40
2009,09,19,10,01,13.40
2009,09,19,10,02,13.50
2009,09,19,10,03,13.50
2009,09,19,10,04,13.60
2009,09,19,10,05,13.60
2009,09,19,10,06,13.60
2009,09,19,10,07,13.60
2009,09,19,10,08,13.70
2009,09,19,10,09,13.80
2009,09,19,10,10,13.90
2009,09,19,10,11,13.90
2009,09,19,10,12,13.90
2009,09,19,10,13,13.90
2009,09,19,10,14,13.90
2009,09,19,10,15,13.90
2009,09,19,10,16,13.90
2009,09,19,10,17,13.90
2009,09,19,10,18,13.90
2009,09,19,10,19,13.90
2009,09,19,10,20,14.00
2009,09,19,10,21,14.20
2009,09,19,10,22,14.50
2009,09,19,10,23,14.70
2009,09,19,10,24,14.80
2009,09,19,10,25,15.00
2009,09,19,10,26,15.00
2009,09,19,10,27,15.00
2009,09,19,10,28,15.00
2009,09,19,10,29,15.10
2009,09,19,10,30,15.20
2009,09,19,10,31,15.20
2009,09,19,10,32,15.20
2009,09,19,10,33,15.20
2009,09,19,10,34,15.20
2009,09,19,10,35,15.20
2009,09,19,10,36,15.20
2009,09,19,10,37,15.20
2009,09,19,10,38,15.20
2009,09,19,10,39,15.20
2009,09,19,10,40,15.20
2009,09,19,10,41,15.20
2009,09,19,10,42,15.20
2009,09,19,10,43,15.20
2009,09,19,10,44,15.20
2009,09,19,10,45,15.20
2009,09,19,10,46,15.30
2009,09,19,10,47,15.30
2009,09,19,10,48,15.30
2009,09,19,10,49,15.30
2009,09,19,10,50,15.40
2009,09,19,10,51,15.40
2009,09,19,10,52,15.40
2009,09,19,10,53,15.40
2009,09,19,10,54,15.50
2009,09,19,10,55,15.60
2009,09,19,10,56,15.60
2009,09,19,10,57,15.70
2009,09,19,10,58,15.70
2009,09,19,10,59,15.80
2009,09,19,11,00,15.80
2009,09,19,11,01,15.80
2009,09,19,11,02,15.80
2009,09,19,11,03,15.80
2009,09,19,11,04,15.90
2009,09,19,11,05,15.90
2009,09,19,11,06,15.90
2009,09,19,11,07,15.90
2009,09,19,11,08,15.90
2009,09,19,11,09,15.90
2009,09,19,11,10,15.90
2009,09,19,11,11,15.90
2009,09,19,11,12,15.90
2009,09,19,11,13,16.00
2009,09,19,11,14,16.00
2009,09,19,11,15,16.00
2009,09,19,11,16,16.10
2009,09,19,11,17,16.10
2009,09,19,11,18,16.10
2009,09,19,11,19,16.10
2009,09,19,11,20,16.10
2009,09,19,11,21,16.10
2009,09,19,11,22,16.20
2009,09,19,11,23,16.20
2009,09,19,11,24,16.20
2009,09,19,11,25,16.30
2009,09,19,11,26,16.30
2009,09,19,11,27,16.30
2009,09,19,11,28,16.30
2009,09,19,11,29,16.30
2009,09,19,11,30,16.40
2009,09,19,11,31,16.40
2009,09,19,11,32,16.40
2009,09,19,11,33,16.40
2009,09,19,11,34,16.40
2009,09,19,11,35,16.40
2009,09,19,11,36,16.50
2009,09,19,11,37,16.50
2009,09,19,11,38,16.50
2009,09,19,11,39,16.50
2009,09,19,11,40,16.50
2009,09,19,11,41,16.60
2009,09,19,11,42,16.60
2009,09,19,11,43,16.60
2009,09,19,11,44,16.60
2009,09,19,11,45,16.70
2009,09,19,11,46,16.70
2009,09,19,11,47,16.70
2009,09,19,11,48,16.80
2009,09,19,11,49,16.80
2009,09,19,11,50,16.80
2009,09,19,11,51,16.80
2009,09,19,11,52,16.80
2009,09,19,11,53,16.80
2009,09,19,11,54,16.80
2009,09,19,11,55,16.80
2009,09,19,11,56,16.90
2009,09,19,11,57,16.90
2009,09,19,11,58,16.90
2009,09,19,11,59,16.90
2009,09,19,12,00,16.90
2009,09,19,12,01,17.00
2009,09,19,12,02,17.00
2009,09,19,12,03,17.00
2009,09,19,12,04,17.00
2009,09,19,12,05,16.90
2009,09,19,12,06,16.90
2009,09,19,12,07,17.00
2009,09,19,12,08,17.00
2009,09,19,12,09,17.10
2009,09,19,12,10,17.10
2009,09,19,12,11,17.10
2009,09,19,12,12,17.10
2009,09,19,12,13,17.20
2009,09,19,12,14,17.20
2009,09,19,12,15,17.20
2009,09,19,12,16,17.20
2009,09,19,12,17,17.20
2009,09,19,12,18,17.20
2009,09,19,12,19,17.20
2009,09,19,12,20,17.30
2009,09,19,12,21,17.30
2009,09,19,12,22,17.30
2009,09,19,12,23,17.30
2009,09,19,12,24,17.30
2009,09,19,12,25,17.30
2009,09,19,12,26,17.30
2009,09,19,12,27,17.20
2009,09,19,12,28,17.20
2009,09,19,12,29,17.20
2009,09,19,12,30,17.20
2009,09,19,12,31,17.20
2009,09,19,12,32,17.20
2009,09,19,12,33,17.20
2009,09,19,12,34,17.20
2009,09,19,12,35,17.20
2009,09,19,12,36,17.10
2009,09,19,12,37,17.20
2009,09,19,12,38,17.20
2009,09,19,12,39,17.20
2009,09,19,12,40,17.10
2009,09,19,12,41,17.10
2009,09,19,12,42,17.10
2009,09,19,12,43,17.20
2009,09,19,12,44,17.10
2009,09,19,12,45,17.10
2009,09,19,12,46,17.10
2009,09,19,12,47,17.10
2009,09,19,12,48,17.20
2009,09,19,12,49,17.20
2009,09,19,12,50,17.30
2009,09,19,12,51,17.30
2009,09,19,12,52,17.30
2009,09,19,12,53,17.40
2009,09,19,12,54,17.50
2009,09,19,12,55,17.50
2009,09,19,12,56,17.50
2009,09,19,12,57,17.60
2009,09,19,12,58,17.60
2009,09,19,12,59,17.60
2009,09,19,13,00,17.60
2009,09,19,13,01,17.60
2009,09,19,13,02,17.70
2009,09,19,13,03,17.70
2009,09,19,13,04,17.70
2009,09,19,13,05,17.70
2009,09,19,13,06,17.60
2009,09,19,13,07,17.60
2009,09,19,13,08,17.60
2009,09,19,13,09,17.60
2009,09,19,13,10,17.60
2009,09,19,13,11,17.50
2009,09,19,13,12,17.50
2009,09,19,13,13,17.50
2009,09,19,13,14,17.50
2009,09,19,13,15,17.60
2009,09,19,13,16,17.60
2009,09,19,13,17,17.60
2009,09,19,13,18,17.60
2009,09,19,13,19,17.70
2009,09,19,13,20,17.70
2009,09,19,13,21,17.70
2009,09,19,13,22,17.70
2009,09,19,13,23,17.70
2009,09,19,13,24,17.80
2009,09,19,13,25,17.80
2009,09,19,13,26,17.80
2009,09,19,13,27,17.80
2009,09,19,13,28,17.80
2009,09,19,13,29,17.80
2009,09,19,13,30,17.80
2009,09,19,13,31,17.80
2009,09,19,13,32,17.90
2009,09,19,13,33,17.90
2009,09,19,13,34,18.00
2009,09,19,13,35,18.00
2009,09,19,13,36,18.10
2009,09,19,13,37,18.10
2009,09,19,13,38,18.20
2009,09,19,13,39,18.20
2009,09,19,13,40,18.20
2009,09,19,13,41,18.20
2009,09,19,13,42,18.20
2009,09,19,13,43,18.20
2009,09,19,13,44,18.20
2009,09,19,13,45,18.20
2009,09,19,13,46,18.30
2009,09,19,13,47,18.30
2009,09,19,13,48,18.30
2009,09,19,13,49,18.30
2009,09,19,13,50,18.40
2009,09,19,13,51,18.50
2009,09,19,13,52,18.50
2009,09,19,13,53,18.60
2009,09,19,13,54,18.70
2009,09,19,13,55,18.70
2009,09,19,13,56,18.80
2009,09,19,13,57,18.90
2009,09,19,13,58,18.90
2009,09,19,13,59,18.90
2009,09,19,14,00,18.90
2009,09,19,14,01,19.00
2009,09,19,14,02,19.00
2009,09,19,14,03,19.10
2009,09,19,14,04,19.10
2009,09,19,14,05,19.10
2009,09,19,14,06,19.20
2009,09,19,14,07,19.30
2009,09,19,14,08,19.30
2009,09,19,14,09,19.30
2009,09,19,14,10,19.30
2009,09,19,14,11,19.20
2009,09,19,14,12,19.20
2009,09,19,14,13,19.10
2009,09,19,14,14,19.00
2009,09,19,14,15,19.00
2009,09,19,14,16,18.90
2009,09,19,14,17,18.80
2009,09,19,14,18,18.80
2009,09,19,14,19,18.70
2009,09,19,14,20,18.70
2009,09,19,14,21,18.70
2009,09,19,14,22,18.60
2009,09,19,14,23,18.60
2009,09,19,14,24,18.60
2009,09,19,14,25,18.60
2009,09,19,14,26,18.60
2009,09,19,14,27,18.50
2009,09,19,14,28,18.50
2009,09,19,14,29,18.50
2009,09,19,14,30,18.50
2009,09,19,14,31,18.50
2009,09,19,14,32,18.60
2009,09,19,14,33,18.60
2009,09,19,14,34,18.70
2009,09,19,14,35,18.70
2009,09,19,14,36,18.70
2009,09,19,14,37,18.70
2009,09,19,14,38,18.80
2009,09,19,14,39,18.80
2009,09,19,14,40,18.80
2009,09,19,14,41,18.80
2009,09,19,14,42,18.80
2009,09,19,14,43,18.80
2009,09,19,14,44,18.70
2009,09,19,14,45,18.70
2009,09,19,14,46,18.60
2009,09,19,14,47,18.60
2009,09,19,14,48,18.50
2009,09,19,14,49,18.50
2009,09,19,14,50,18.50
2009,09,19,14,51,18.40
2009,09,19,14,52,18.40
2009,09,19,14,53,18.40
2009,09,19,14,54,18.30
2009,09,19,14,55,18.30
2009,09,19,14,56,18.30
2009,09,19,14,57,18.30
2009,09,19,14,58,18.30
2009,09,19,14,59,18.30
2009,09,19,15,00,18.30
2009,09,19,15,01,18.30
2009,09,19,15,02,18.40
2009,09,19,15,03,18.40
2009,09,19,15,04,18.40
2009,09,19,15,05,18.40
2009,09,19,15,06,18.50
2009,09,19,15,07,18.60
2009,09,19,15,08,18.70
2009,09,19,15,09,18.80
2009,09,19,15,10,18.80
2009,09,19,15,11,18.80
2009,09,19,15,12,18.70
2009,09,19,15,13,18.70
2009,09,19,15,14,18.70
2009,09,19,15,15,18.60
2009,09,19,15,16,18.70
2009,09,19,15,17,18.80
2009,09,19,15,18,18.80
2009,09,19,15,19,18.90
2009,09,19,15,20,18.90
2009,09,19,15,21,19.00
2009,09,19,15,22,19.00
2009,09,19,15,23,19.00
2009,09,19,15,24,19.10
2009,09,19,15,25,19.20
2009,09,19,15,26,19.30
2009,09,19,15,27,19.30
2009,09,19,15,28,19.30
2009,09,19,15,29,19.20
2009,09,19,15,30,19.20
2009,09,19,15,31,19.30
2009,09,19,15,32,19.30
2009,09,19,15,33,19.40
2009,09,19,15,34,19.50
2009,09,19,15,35,19.60
2009,09,19,15,36,19.60
2009,09,19,15,37,19.50
2009,09,19,15,38,19.50
2009,09,19,15,39,19.40
2009,09,19,15,40,19.30
2009,09,19,15,41,19.30
2009,09,19,15,42,19.40
2009,09,19,15,43,19.50
2009,09,19,15,44,19.50
2009,09,19,15,45,19.50
2009,09,19,15,46,19.40
2009,09,19,15,47,19.40
2009,09,19,15,48,19.40
2009,09,19,15,49,19.40
2009,09,19,15,50,19.40
2009,09,19,15,51,19.40
2009,09,19,15,52,19.30
2009,09,19,15,53,19.30
2009,09,19,15,54,19.30
2009,09,19,15,55,19.30
2009,09,19,15,56,19.30
2009,09,19,15,57,19.30
2009,09,19,15,58,19.30
2009,09,19,15,59,19.30
2009,09,19,16,00,19.30
2009,09,19,16,01,19.30
2009,09,19,16,02,19.30
2009,09,19,16,03,19.30
2009,09,19,16,04,19.20
2009,09,19,16,05,19.20
2009,09,19,16,06,19.20
2009,09,19,16,07,19.20
2009,09,19,16,08,19.20
2009,09,19,16,09,19.20
2009,09,19,16,10,19.20
2009,09,19,16,11,19.20
2009,09,19,16,12,19.20
2009,09,19,16,13,19.10
2009,09,19,16,14,19.00
2009,09,19,16,15,18.80
2009,09,19,16,16,18.80
2009,09,19,16,17,18.70
2009,09,19,16,18,18.70
2009,09,19,16,19,18.60
2009,09,19,16,20,18.60
2009,09,19,16,21,18.50
2009,09,19,16,22,18.50
2009,09,19,16,23,18.40
2009,09,19,16,24,18.30
2009,09,19,16,25,18.30
2009,09,19,16,26,18.20
2009,09,19,16,27,18.20
2009,09,19,16,28,18.10
2009,09,19,16,29,18.00
2009,09,19,16,30,18.00
2009,09,19,16,31,18.00
2009,09,19,16,32,18.00
2009,09,19,16,33,18.10
2009,09,19,16,34,18.10
2009,09,19,16,35,18.10
2009,09,19,16,36,18.10
2009,09,19,16,37,18.10
2009,09,19,16,38,18.10
2009,09,19,16,39,18.10
2009,09,19,16,40,18.10
2009,09,19,16,41,18.10
2009,09,19,16,42,18.10
2009,09,19,16,43,18.10
2009,09,19,16,44,18.10
2009,09,19,16,45,18.10
2009,09,19,16,46,18.10
2009,09,19,16,47,18.10
2009,09,19,16,48,18.00
2009,09,19,16,49,17.90
2009,09,19,16,50,17.90
2009,09,19,16,51,17.80
2009,09,19,16,52,17.80
2009,09,19,16,53,17.80
2009,09,19,16,54,17.70
2009,09,19,16,55,17.70
2009,09,19,16,56,17.70
2009,09,19,16,57,17.70
2009,09,19,16,58,17.60
2009,09,19,16,59,17.60
2009,09,19,17,00,17.60
2009,09,19,17,01,17.60
2009,09,19,17,02,17.60
2009,09,19,17,03,17.60
2009,09,19,17,04,17.60
2009,09,19,17,05,17.70
2009,09,19,17,06,17.70
2009,09,19,17,07,17.70
2009,09,19,17,08,17.70
2009,09,19,17,09,17.70
2009,09,19,17,10,17.70
2009,09,19,17,11,17.70
2009,09,19,17,12,17.70
2009,09,19,17,13,17.70
2009,09,19,17,14,17.70
2009,09,19,17,15,17.70
2009,09,19,17,16,17.70
2009,09,19,17,17,17.70
2009,09,19,17,18,17.70
2009,09,19,17,19,17.70